Simultaneous Nadir Overpasses (SNOs) Predictions

Prediction of SNOs between METOP-B and TERRA Satellite Orbit:

Table of predicted SNOs for the next 14.0 days since TLE Epoch: 1/12/2018
Index Date (METOP-B) Time (METOP-B) Lat,Lon (METOP-B) SZA (METOP-B ) Date (TERRA) Time (TERRA) Lat,Lon (TERRA) SZA (TERRA ) Distance(km) Time Diff (sec)
1 01/15/2018 04:55:28 81.32, 153.74 104.87 01/15/2018 04:55:50 81.31, 153.59 104.86 2.56 22
2 01/15/2018 05:46:08 -81.32, -38.43 75.08 01/15/2018 05:45:16 -81.32, -38.50 75.11 1.19 52
3 01/18/2018 00:29:49 81.32,-139.73 104.32 01/18/2018 00:30:04 81.32,-139.85 104.32 1.94 15
4 01/18/2018 01:20:29 -81.33, 28.12 75.63 01/18/2018 01:19:30 -81.33, 28.08 75.66 1.01 59
5 01/20/2018 20:04:11 81.32, -73.21 103.72 01/20/2018 20:04:19 81.33, -73.27 103.72 1.01 8
6 01/20/2018 20:54:52 -81.32, 94.26 76.27 01/20/2018 20:53:46 -81.32, 94.31 76.30 0.78 66
7 01/23/2018 14:48:02 -81.26,-177.62 77.32 01/23/2018 14:49:16 -81.16,-177.37 77.35 12.49 74
8 01/23/2018 15:38:34 81.32, -7.10 103.03 01/23/2018 15:38:35 81.31, -7.05 103.03 0.98 1
9 01/23/2018 16:29:14 -81.32, 160.78 76.92 01/23/2018 16:28:01 -81.33, 160.93 76.93 2.66 73
10 01/26/2018 10:22:15 -81.32,-108.00 77.67 01/26/2018 10:23:23 -81.32,-108.12 77.65 2.08 68




NCC Satellite Simultaneous Nadir Overpasses (SNOs) Prediction Service
